[[{"header":{"parameterUnit":"m.s-1","parameterCategory":1,"la1":30.2991,"la2":30.254,"lo1":-89.0895,"lo2":-89.0444,"dy":0.0017,"dx":0.0017,"nx":28,"ny":28,"refTime":"2024-12-08T03:00:00:Z","depth":0,"parameterNumber":2,"parameterNumberName":"U-component_of_WINDS"},"data":[0,0,0,0,0,0,0,0,0,0,0,0,0,0,0,0,0,0,0,0,0,0,0,0,0,0,0,0,0,0,0,0,0,0,0,0,0,0,0,0,0,0,0,0,0,0,0,0,0,0,0,0,0,0,0,0,0,0,-1.9266,-1.9266,0,-1.9278,-1.9278,-1.9278,-1.9194,-1.9192,-1.9189,-1.9187,-1.9201,-1.9203,-1.9206,0,0,0,0,0,0,0,0,0,0,0,0,0,-1.9172,-1.9174,-1.9266,-1.9266,-1.9266,-1.9278,-1.9278,-1.9278,-1.9194,-1.9191,-1.9189,-1.9186,-1.92,-1.9203,-1.9206,0,0,0,0,0,0,0,0,0,0,0,0,0,-1.9201,-1.9175,-1.9266,-1.9226,-1.9222,-1.9278,-1.9278,-1.9278,-1.9195,-1.9191,-1.9188,-1.9184,-1.9199,-1.9203,-1.9207,-1.9301,0,0,-1.9218,-1.922,0,0,0,0,0,0,0,0,-1.92,-1.9205,-1.9231,-1.9229,-1.9225,-1.9231,-1.925,-1.9286,-1.9196,-1.9205,-1.9187,-1.9183,-1.9214,-1.9216,-1.9226,-1.9302,-1.9303,-1.9219,-1.9221,-1.9223,-1.9224,0,0,0,0,0,0,0,-1.9198,-1.9204,-1.927,-1.9232,-1.9228,-1.9208,-1.9208,-1.9256,-1.9229,-1.9204,-1.9198,-1.9201,-1.9211,-1.9223,-1.9226,-1.9303,-1.9219,-1.9222,-1.9224,-1.9226,-1.9457,-1.9461,0,0,0,0,0,0,-1.9201,-1.9203,-1.927,-1.9271,-1.9203,-1.9212,-1.9212,-1.9232,-1.9229,-1.9225,-1.9204,-1.9197,-1.9218,-1.9222,-1.9226,-1.9337,-1.9223,-1.9226,-1.9229,-1.9454,-1.9458,-1.9462,0,0,0,0,0,0,-1.9199,-1.9208,-1.927,-1.9235,-1.9241,-1.9217,-1.9241,-1.9234,-1.9246,-1.9228,-1.9223,-1.922,-1.9215,-1.9221,-1.9283,-1.9336,-1.9228,-1.9232,-1.9449,-1.9455,-1.946,-1.956,0,0,0,0,0,0,-1.9197,-1.9208,-1.9243,-1.9237,-1.9244,-1.9327,-1.9244,-1.9237,-1.9252,-1.9243,-1.9242,-1.9239,-1.9213,-1.9278,-1.9287,-1.934,-1.9235,-1.9444,-1.9452,-1.9458,-1.9552,-1.9569,-1.9583,0,0,0,0,0,-1.9194,-1.9271,-1.9245,-1.9254,-1.9287,-1.933,-1.9334,-1.9302,-1.9257,-1.9293,-1.9281,-1.9239,-1.9329,-1.9285,-1.9295,-1.9349,-1.9441,-1.945,-1.9458,-1.9545,-1.9565,-1.9583,0,0,0,0,0,0,-1.9286,-1.927,-1.9241,-1.9318,-1.9326,-1.9315,-1.936,-1.9324,-1.9345,-1.9336,-1.9296,-1.9296,-1.9366,-1.9364,-1.9315,-1.9441,-1.9377,-1.9388,-1.944,-1.9459,-1.9474,-1.9474,-1.9238,0,0,0,0,0,-1.9315,-1.935,-1.9334,-1.9404,-1.9409,-1.9384,-1.9401,-1.9376,-1.9382,-1.9385,-1.9378,-1.9387,-1.9417,-1.9438,-1.9465,-1.9551,-1.955,-1.9593,-1.9609,-1.9622,-1.9632,-1.9678,-1.9697,-1.9491,-1.9491,-1.949,0,0,-1.9376,-1.9371,-1.9396,-1.9422,-1.9425,-1.9463,-1.9387,-1.9431,-1.9458,-1.9392,-1.9451,-1.9446,-1.9453,-1.9528,-1.9561,-1.9528,-1.9688,-1.9632,-1.9643,-1.9646,-1.9689,-1.9708,-1.9726,-1.9496,-1.9495,-1.9494,0,0,-1.9506,-1.9506,-1.9564,-1.9568,-1.9573,-1.9556,-1.957,-1.9565,-1.9559,-1.9617,-1.9568,-1.9601,-1.9654,-1.966,-1.9671,-1.9803,-1.9765,-1.9813,-1.9894,-1.9939,-1.9955,-1.997,-2.0018,-2.0035,-1.9823,-1.9823,-1.9824,0,-1.9581,-1.9636,-1.9599,-1.9645,-1.9659,-1.9599,-1.9658,-1.9664,-1.9679,-1.9689,-1.9652,-1.9717,-1.9718,-1.9794,-1.9826,-1.9836,-1.9851,-1.9814,-1.9956,-1.997,-1.9983,-2.0028,-2.0046,-1.9829,-1.9829,-1.9828,-1.9827,0,-1.9728,-1.9767,-1.9813,-1.9828,-1.9846,-1.9899,-1.987,-1.9893,-1.9866,-1.9853,-1.9913,-1.9911,-1.9936,-1.9952,-1.9927,-2.0025,-2.0005,-1.9963,-1.9898,-2.0009,-2.0051,-2.0068,-1.9838,-1.9836,-1.9834,-1.9832,0,0,-1.9918,-1.991,-1.9928,-1.9934,-1.9935,-1.9964,-2.0014,-2.0038,-2.0059,-2.0071,-2.0112,-2.0158,-2.0119,-2.0131,-2.0105,-2.0145,-2.025,-2.0097,-2.0097,-2.0127,-2.0359,-2.0392,-2.0412,-2.0224,-2.0228,-2.023,-2.0359,0,-2.0045,-2.013,-2.0098,-2.0185,-2.022,-2.0164,-2.0208,-2.0214,-2.0202,-2.0231,-2.0218,-2.0252,-2.0197,-2.0204,-2.0241,-2.023,-2.0297,-2.022,-2.0263,-2.0265,-2.0264,-2.0434,-2.0468,-2.059,-2.0375,-2.0378,-2.038,0,-2.0205,-2.0223,-2.0314,-2.0308,-2.0322,-2.0362,-2.0381,-2.0409,-2.0414,-2.0403,-2.0417,-2.0382,-2.0431,-2.0366,-2.0433,-2.0382,-2.0398,-2.0395,-2.0399,-2.0402,-2.033,-2.0443,-2.0628,-2.0646,-2.0405,-2.0403,-2.0401,0,-2.0335,-2.0381,-2.0441,-2.0448,-2.0443,-2.0473,-2.0472,-2.0474,-2.049,-2.0507,-2.0518,-2.0541,-2.0554,-2.0573,-2.0546,-2.05,-2.0617,-2.055,-2.061,-2.0611,-2.0638,-2.0637,-2.0829,-2.0647,-2.0647,-2.0647,-2.0646,0,-2.0482,-2.054,-2.05,-2.0537,-2.06,-2.0563,-2.0627,-2.062,-2.0622,-2.0657,-2.061,-2.0644,-2.0606,-2.0637,-2.0616,-2.0675,-2.0681,-2.0674,-2.0668,-2.0679,-2.068,-2.0689,-2.0681,-2.0652,-2.0651,-2.065,-2.0649,0,-2.0638,-2.0614,-2.0676,-2.0666,-2.0664,-2.0712,-2.0703,-2.0737,-2.0722,-2.0768,-2.0776,-2.0753,-2.0787,-2.0761,-2.0795,-2.0781,-2.0859,-2.0841,-2.0858,-2.0853,-2.0915,-2.091,-2.1121,-2.1147,-2.0948,-2.095,-2.0951,0,-2.0734,-2.0777,-2.0771,-2.0791,-2.0793,-2.0826,-2.0842,-2.0807,-2.0827,-2.0836,-2.0869,-2.0898,-2.092,-2.0977,-2.0964,-2.0989,-2.0971,-2.1043,-2.0975,-2.0984,-2.0973,-2.0971,-2.0976,-2.1058,-2.106,-2.1062,-2.1063,0,-2.0906,-2.0892,-2.0917,-2.0938,-2.0959,-2.0974,-2.0986,-2.1005,-2.0969,-2.0993,-2.1026,-2.1043,-2.1077,-2.1107,-2.1128,-2.1127,-2.1091,-2.1085,-2.11,-2.1113,-2.1121,-2.1118,-2.0896,-2.108,-2.1079,-2.1078,-2.1077,-2.1076,-2.1035,-2.1071,-2.1073,-2.1102,-2.1107,-2.1119,-2.115,-2.1139,-2.1166,-2.1191,-2.1168,-2.1209,-2.1213,-2.1236,-2.1241,-2.1272,-2.1243,-2.1265,-2.1271,-2.1277,-2.1287,-2.1115,-2.1276,-2.1275,-2.1275,-2.1274,-2.1274,0,-2.1206,-2.1204,-2.1231,-2.1249,-2.1272,-2.1234,-2.1244,-2.1267,-2.1303,-2.1309,-2.1332,-2.137,-2.1399,-2.1388,-2.1414,-2.1441,-2.1425,-2.1449,-2.1447,-2.1448,-2.1311,-2.1296,-2.1462,-2.1462,-2.1462,-2.1462,-2.1462,-2.1462,-2.1297,-2.1356,-2.1342,-2.1402,-2.14,-2.1439,-2.1448,-2.1459,-2.1464,-2.1509,-2.1533,-2.1525,-2.1524,-2.1549,-2.1574,-2.157,-2.1582,-2.1613,-2.1603,-2.1476,-2.1458,-2.144,-2.1425,-2.1616,-2.1616,-2.1737,-2.1738,-2.1739]},{"header":{"parameterUnit":"m.s-1","parameterCategory":1,"la1":30.2991,"la2":30.254,"lo1":-89.0895,"lo2":-89.0444,"dy":0.0017,"dx":0.0017,"nx":28,"ny":28,"refTime":"2024-12-08T03:00:00:Z","depth":0,"parameterNumber":3,"parameterNumberName":"V-component_of_WINDS"},"data":[0,0,0,0,0,0,0,0,0,0,0,0,0,0,0,0,0,0,0,0,0,0,0,0,0,0,0,0,0,0,0,0,0,0,0,0,0,0,0,0,0,0,0,0,0,0,0,0,0,0,0,0,0,0,0,0,0,0,-0.4358,-0.4358,0,-0.4386,-0.4387,-0.4387,-0.4396,-0.4395,-0.4395,-0.4395,-0.4427,-0.4428,-0.4429,0,0,0,0,0,0,0,0,0,0,0,0,0,-0.4311,-0.4312,-0.4357,-0.4358,-0.4358,-0.4386,-0.4387,-0.4387,-0.4396,-0.4395,-0.4395,-0.4395,-0.4426,-0.4428,-0.4429,0,0,0,0,0,0,0,0,0,0,0,0,0,-0.4335,-0.4312,-0.4357,-0.4366,-0.4367,-0.4386,-0.4387,-0.4387,-0.4396,-0.4395,-0.4395,-0.4395,-0.4426,-0.4427,-0.4429,-0.4443,0,0,-0.4433,-0.4434,0,0,0,0,0,0,0,0,-0.4333,-0.4336,-0.4364,-0.4365,-0.4366,-0.4387,-0.4382,-0.4406,-0.4396,-0.4385,-0.4395,-0.4395,-0.4414,-0.4416,-0.4422,-0.4444,-0.4446,-0.4434,-0.4434,-0.4435,-0.4436,0,0,0,0,0,0,0,-0.4332,-0.4335,-0.4369,-0.4365,-0.4366,-0.4368,-0.4372,-0.4386,-0.44,-0.4386,-0.4386,-0.439,-0.4414,-0.4421,-0.4423,-0.4446,-0.4434,-0.4435,-0.4436,-0.4436,-0.448,-0.448,0,0,0,0,0,0,-0.4328,-0.4334,-0.4368,-0.437,-0.4349,-0.4369,-0.4373,-0.4381,-0.44,-0.4403,-0.439,-0.439,-0.4418,-0.4421,-0.4424,-0.4441,-0.4435,-0.4436,-0.4437,-0.448,-0.448,-0.4481,0,0,0,0,0,0,-0.4327,-0.4331,-0.4367,-0.4352,-0.4357,-0.437,-0.4379,-0.4381,-0.4388,-0.4403,-0.4406,-0.4394,-0.4418,-0.4422,-0.4438,-0.4443,-0.4437,-0.4438,-0.448,-0.448,-0.448,-0.4476,0,0,0,0,0,0,-0.4326,-0.4331,-0.4336,-0.4352,-0.4357,-0.438,-0.4379,-0.4382,-0.439,-0.4391,-0.4408,-0.441,-0.4418,-0.4436,-0.4439,-0.4445,-0.444,-0.4479,-0.448,-0.448,-0.4476,-0.4476,-0.4477,0,0,0,0,0,-0.4324,-0.4334,-0.4336,-0.434,-0.4364,-0.438,-0.4383,-0.4392,-0.439,-0.4396,-0.4406,-0.441,-0.4441,-0.4437,-0.4441,-0.4447,-0.4479,-0.448,-0.448,-0.4476,-0.4476,-0.4477,0,0,0,0,0,0,-0.432,-0.4337,-0.4339,-0.4354,-0.4365,-0.4381,-0.4388,-0.4392,-0.4404,-0.4404,-0.4415,-0.4419,-0.4434,-0.4442,-0.4437,-0.4461,-0.446,-0.4462,-0.4455,-0.4456,-0.4456,-0.4454,-0.4441,0,0,0,0,0,-0.432,-0.4331,-0.4345,-0.4358,-0.4363,-0.4375,-0.4382,-0.4387,-0.44,-0.4405,-0.4416,-0.4428,-0.444,-0.4449,-0.4461,-0.4477,-0.4481,-0.4483,-0.4483,-0.4483,-0.4485,-0.4493,-0.4494,-0.4483,-0.4483,-0.4483,0,0,-0.4322,-0.4333,-0.4339,-0.4357,-0.4366,-0.4378,-0.4379,-0.4391,-0.4399,-0.4407,-0.4422,-0.443,-0.4445,-0.446,-0.4467,-0.4467,-0.4489,-0.4484,-0.4484,-0.4486,-0.4494,-0.4495,-0.4496,-0.4483,-0.4483,-0.4483,0,0,-0.4331,-0.434,-0.4351,-0.436,-0.4373,-0.4381,-0.4383,-0.4398,-0.4404,-0.4419,-0.4424,-0.4435,-0.4457,-0.4466,-0.4474,-0.4485,-0.449,-0.4489,-0.4492,-0.45,-0.4501,-0.4501,-0.4505,-0.4507,-0.449,-0.449,-0.449,0,-0.4332,-0.4348,-0.4356,-0.4368,-0.4375,-0.4381,-0.4393,-0.4401,-0.4418,-0.4424,-0.4423,-0.445,-0.446,-0.4478,-0.448,-0.4486,-0.449,-0.4488,-0.45,-0.4501,-0.4502,-0.4506,-0.4507,-0.449,-0.449,-0.449,-0.449,0,-0.4348,-0.436,-0.4367,-0.4382,-0.4391,-0.4402,-0.4412,-0.442,-0.4424,-0.4432,-0.4447,-0.4459,-0.4474,-0.4478,-0.4483,-0.4497,-0.4496,-0.4497,-0.4497,-0.4502,-0.4506,-0.4508,-0.449,-0.449,-0.449,-0.449,0,0,-0.4356,-0.4375,-0.4377,-0.4384,-0.4399,-0.4408,-0.4419,-0.4433,-0.4439,-0.4451,-0.4461,-0.4478,-0.4479,-0.4488,-0.4494,-0.4501,-0.4509,-0.4502,-0.4502,-0.4503,-0.4524,-0.4523,-0.4525,-0.4512,-0.4512,-0.4512,-0.4523,0,-0.4367,-0.4387,-0.4394,-0.441,-0.4421,-0.4426,-0.4436,-0.4447,-0.4454,-0.4464,-0.4472,-0.4484,-0.4485,-0.449,-0.4497,-0.4507,-0.4514,-0.4506,-0.4521,-0.4522,-0.4518,-0.4527,-0.4526,-0.4536,-0.4525,-0.4525,-0.4525,0,-0.4382,-0.4393,-0.441,-0.4423,-0.4428,-0.4436,-0.4449,-0.4459,-0.447,-0.4475,-0.4484,-0.4489,-0.4502,-0.45,-0.4517,-0.4512,-0.4518,-0.4524,-0.4524,-0.4526,-0.4524,-0.4529,-0.4539,-0.454,-0.4527,-0.4527,-0.4527,0,-0.4386,-0.4405,-0.4417,-0.4423,-0.4438,-0.4444,-0.4451,-0.4462,-0.447,-0.4481,-0.4486,-0.4498,-0.4506,-0.4515,-0.4524,-0.4522,-0.454,-0.4539,-0.4545,-0.4545,-0.4549,-0.4549,-0.456,-0.4553,-0.4553,-0.4553,-0.4553,0,-0.4398,-0.4408,-0.4419,-0.4427,-0.4439,-0.4447,-0.4458,-0.4465,-0.4475,-0.4485,-0.449,-0.4499,-0.451,-0.452,-0.4527,-0.454,-0.4543,-0.4548,-0.4549,-0.4547,-0.4547,-0.4552,-0.4552,-0.4553,-0.4553,-0.4553,-0.4553,0,-0.4404,-0.4412,-0.4426,-0.4439,-0.4442,-0.445,-0.4461,-0.4469,-0.4476,-0.4488,-0.4491,-0.4502,-0.4515,-0.4524,-0.4541,-0.4545,-0.4559,-0.4561,-0.4555,-0.4556,-0.4561,-0.456,-0.4577,-0.4579,-0.457,-0.457,-0.457,0,-0.4411,-0.4419,-0.4432,-0.4439,-0.4445,-0.4455,-0.4463,-0.447,-0.4478,-0.4491,-0.4497,-0.451,-0.452,-0.454,-0.455,-0.4562,-0.4564,-0.4569,-0.4566,-0.4564,-0.4565,-0.4564,-0.4565,-0.457,-0.457,-0.457,-0.457,0,-0.4423,-0.4426,-0.4436,-0.4447,-0.4455,-0.4464,-0.4474,-0.4479,-0.4488,-0.4496,-0.4508,-0.4516,-0.4532,-0.4545,-0.4558,-0.4565,-0.4569,-0.457,-0.4572,-0.4571,-0.4567,-0.4569,-0.4556,-0.457,-0.457,-0.457,-0.457,-0.457,-0.443,-0.4437,-0.4447,-0.4458,-0.4465,-0.4474,-0.4481,-0.4489,-0.4499,-0.4512,-0.4516,-0.4528,-0.4539,-0.4557,-0.4565,-0.4575,-0.4575,-0.4578,-0.4579,-0.4579,-0.4579,-0.4565,-0.4577,-0.4577,-0.4577,-0.4577,-0.4577,0,-0.4442,-0.4448,-0.4458,-0.447,-0.4478,-0.448,-0.449,-0.4497,-0.4508,-0.4518,-0.4527,-0.4541,-0.4553,-0.4563,-0.4575,-0.4582,-0.4584,-0.4585,-0.4585,-0.4586,-0.4578,-0.4575,-0.4583,-0.4583,-0.4583,-0.4583,-0.4583,-0.4583,-0.4449,-0.4461,-0.4465,-0.4481,-0.4487,-0.4499,-0.4504,-0.4512,-0.452,-0.4534,-0.4544,-0.455,-0.456,-0.4573,-0.4584,-0.4587,-0.4591,-0.4591,-0.4595,-0.4587,-0.4587,-0.4586,-0.4583,-0.4592,-0.4592,-0.4602,-0.4602,-0.4602]}]]